Regional Weather Roundup
Issued by NWS

Home | Current Version | Previous Version | Text Only | Print | Product List | Glossary Off
Versions: 1 2 3 4 5 6 7 8 9 10 11 12 13 14 15 16 17 18 19 20 21 22 23 24 25 26 27 28 29 30 31 32 33 34 35 36 37 38 39 40 41 42 43 44 45 46 47 48 49 50

000
ASUS43 KLMK 040810
RWRKY
KENTUCKY REGIONAL WEATHER ROUNDUP
NATIONAL WEATHER SERVICE LOUISVILLE KY
400 AM EDT FRI SEP 04 2015

NOTE "FAIR" INDICATES FEW OR NO CLOUDS BELOW 12,000 FEET
WITH NO SIGNIFICANT WEATHER AND/OR OBSTRUCTIONS TO VISIBILITY.

KYZ001>023-026-027-061>063-070>075-040900-
WESTERN AND SOUTH CENTRAL KENTUCKY

CITY           SKY/WX    TMP DP  RH WIND       PRES   REMARKS
PADUCAH        CLEAR     68  66  93 CALM      29.97R FOG
HENDERSON      CLEAR     66  63  88 CALM      29.96S
OWENSBORO      CLEAR     71  69  93 CALM      29.98R
HOPKINSVILLE   CLEAR     70  67  91 CALM      29.97S
BOWLING GREEN  CLEAR     70  68  93 CALM      29.99R
GLASGOW        CLEAR     66  66 100 CALM      29.99S FOG
$$

KYZ024-025-028>034-038-045-046-053-040900-
NORTH CENTRAL KENTUCKY

CITY           SKY/WX    TMP DP  RH WIND       PRES   REMARKS
LOUISVILLE/SDF CLEAR     74  68  81 SE3       29.98R HAZE
LOUISVILLE/LOU CLEAR     72  68  87 CALM      29.99R FOG
FORT KNOX      CLEAR     69  68  95 CALM      29.98R
$$

KYZ035>037-039>044-047>052-055>060-089>105-040900-
NORTHEAST KENTUCKY

CITY           SKY/WX    TMP DP  RH WIND       PRES   REMARKS
LEXINGTON      CLEAR     70  65  84 CALM      30.01R
COVINGTON      CLEAR     70  66  87 CALM      29.99S
FRANKFORT      CLEAR     68  65  90 CALM      29.99R FOG
$$

KYZ054-064>069-076>088-106>120-040900-
SOUTHEAST KENTUCKY

CITY           SKY/WX    TMP DP  RH WIND       PRES   REMARKS
JACKSON        CLEAR     70  66  87 CALM      30.03R
LONDON         CLEAR     68  63  84 CALM      30.02R HAZE
SOMERSET       CLEAR     64  64 100 CALM      30.02S FOG
MIDDLESBORO    MOCLDY    65  65 100 CALM      30.04R FOG
MONTICELLO     FOG       64  64 100 CALM      30.04R VSB 1/2
$$



USA.gov is the U.S. government's official web portal to all federal, state and local government web resources and services.